TimeEDT,TemperatureF,Dew PointF,Humidity,Sea Level PressureIn,VisibilityMPH,Wind Direction,Wind SpeedMPH,Gust SpeedMPH,PrecipitationIn,Events,Conditions,WindDirDegrees,DateUTC
12:56 AM,71.1,68.0,90,30.18,10.0,Calm,Calm,-,N/A,,Clear,0,2013-07-17 04:56:00
1:56 AM,70.0,68.0,93,30.17,10.0,Calm,Calm,-,N/A,,Clear,0,2013-07-17 05:56:00
2:56 AM,69.1,68.0,96,30.17,10.0,Calm,Calm,-,N/A,,Clear,0,2013-07-17 06:56:00
3:56 AM,69.1,68.0,96,30.17,10.0,Calm,Calm,-,N/A,,Clear,0,2013-07-17 07:56:00
4:56 AM,66.9,66.0,97,30.18,9.0,Calm,Calm,-,N/A,,Clear,0,2013-07-17 08:56:00
5:56 AM,69.1,69.1,100,30.20,6.0,Calm,Calm,-,N/A,,Overcast,0,2013-07-17 09:56:00
6:56 AM,73.0,70.0,90,30.20,6.0,Calm,Calm,-,N/A,,Haze,0,2013-07-17 10:56:00
7:56 AM,79.0,71.1,77,30.19,10.0,Calm,Calm,-,N/A,,Haze,0,2013-07-17 11:56:00
8:56 AM,82.0,70.0,67,30.20,10.0,Variable,3.5,-,N/A,,Haze,0,2013-07-17 12:56:00
9:56 AM,84.9,69.1,59,30.19,10.0,Variable,3.5,-,N/A,,Haze,0,2013-07-17 13:56:00
10:56 AM,87.1,69.1,55,30.18,10.0,SW,4.6,-,N/A,,Haze,230,2013-07-17 14:56:00
11:56 AM,89.1,69.1,52,30.16,10.0,Variable,4.6,-,N/A,,Haze,0,2013-07-17 15:56:00
12:56 PM,91.0,66.0,44,30.14,10.0,SW,5.8,-,N/A,,Haze,220,2013-07-17 16:56:00
1:56 PM,93.9,64.0,37,30.13,10.0,West,8.1,-,N/A,,Clear,280,2013-07-17 17:56:00
2:56 PM,93.0,66.9,42,30.11,10.0,Variable,4.6,-,N/A,,Clear,0,2013-07-17 18:56:00
3:56 PM,91.9,66.0,42,30.07,10.0,Calm,Calm,-,N/A,,Partly Cloudy,0,2013-07-17 19:56:00
4:56 PM,93.0,68.0,44,30.05,10.0,SW,8.1,-,N/A,,Clear,230,2013-07-17 20:56:00
5:56 PM,91.9,69.1,47,30.05,10.0,WSW,9.2,-,N/A,,Partly Cloudy,250,2013-07-17 21:56:00
6:56 PM,88.0,71.1,57,30.02,10.0,SSW,8.1,-,N/A,,Clear,210,2013-07-17 22:56:00
7:56 PM,84.0,71.1,65,30.04,10.0,SSW,5.8,-,N/A,,Clear,200,2013-07-17 23:56:00
8:56 PM,82.9,73.0,72,30.04,10.0,SW,9.2,-,N/A,,Clear,220,2013-07-18 00:56:00
9:56 PM,82.0,73.9,76,30.05,10.0,SSW,9.2,-,N/A,,Clear,210,2013-07-18 01:56:00
10:56 PM,80.1,73.0,79,30.04,10.0,SSW,8.1,-,N/A,,Scattered Clouds,210,2013-07-18 02:56:00
11:56 PM,79.0,72.0,79,30.01,10.0,SSW,9.2,-,N/A,,Clear,210,2013-07-18 03:56:00